Indianapolis, IN

6:04 PM EST on November 11, 2019 (GMT -0500)
Indianapolis International

Weather History for KIND - September, 2019

Change the Weather History Date:

Sunday, September 8, 2019

  Actual Average Record
Temperature  
Mean Temperature 69 °F 70 °F  
Max Temperature 76 °F 81 °F 97 °F (1939)
Min Temperature 61 °F 60 °F 38 °F (1986)
Degree Days  
Heating Degree Days 0 1  
Month to date heating degree days 0 4  
Since 1 July heating degree days 0 8  
Cooling Degree Days 4 6  
Month to date cooling degree days 43 54  
Year to date cooling degree days 1082 975  
Growing Degree Days 18 (Base 50)    
Moisture  
Dew Point 59 °F    
Average Humidity 74    
Maximum Humidity 93    
Minimum Humidity 54    
Precipitation  
Precipitation T in 0.10 in 2.61 in (1926)
Month to date precipitation T 0.80  
Year to date precipitation 36.55 30.13  
Snow  
Snow 0.00 in 0.00 in 0.00 in ()
Month to date snowfall 0.0 0.0  
Since 1 July snowfall 0.0 0.0  
Since 1 September snowfall 0.0 0.0  
Snow Depth 0.00 in    
Sea Level Pressure  
Sea Level Pressure 30.07 in    
Wind  
Wind Speed 5 mph (ESE)    
Max Wind Speed 12 mph    
Max Gust Speed 15 mph    
Visibility 10 miles    
Events Rain    
T = Trace of Precipitation, MM = Missing Value Source: NWS Daily Summary

Daily Weather History Graph

Daily Weather History Graph

Search for Another Location

Airport or City:

Astronomy

Sep. 08, 2019 Rise Set
Actual Time 7:19 AM EDT 8:05 PM EDT
Civil Twilight 6:52 AM EDT 8:32 PM EDT
Nautical Twilight 6:19 AM EDT 9:05 PM EDT
Astronomical Twilight 5:46 AM EDT 9:38 PM EDT
Moon 5:13 PM EDT (9/8) 1:59 AM EDT (9/8)
Length of Visible Light 13h 40m
Length of Day
12h 45m
Waxing Gibbous, 75% of the Moon is Illuminated
Sep 8
Waxing Gibbous
Sep 14
Full
Sep 21
Last Quarter
Sep 28
New
Oct 5
First Quarter

Hourly Weather History & Observations

Time (EDT) Temp. Dew Point Humidity Pressure Visibility Wind Dir Wind Speed Gust Speed Precip Events Conditions
12:54 AM 64.9 °F 57.9 °F 78% 30.04 in 10.0 mi Calm Calm - N/A   Mostly Cloudy
1:54 AM 63.0 °F 57.9 °F 84% 30.04 in 10.0 mi Calm Calm - N/A   Mostly Cloudy
2:54 AM 62.1 °F 57.9 °F 86% 30.03 in 10.0 mi WSW 3.5 mph - N/A   Scattered Clouds
3:54 AM 62.1 °F 59.0 °F 90% 30.03 in 10.0 mi Calm Calm - N/A   Mostly Cloudy
4:54 AM 64.0 °F 59.0 °F 84% 30.03 in 10.0 mi Calm Calm - 0.00 in   Mostly Cloudy
5:54 AM 64.0 °F 59.0 °F 84% 30.05 in 10.0 mi Calm Calm - N/A   Overcast
6:54 AM 64.0 °F 57.9 °F 80% 30.06 in 10.0 mi Calm Calm - N/A   Mostly Cloudy
7:54 AM 63.0 °F 60.1 °F 90% 30.09 in 10.0 mi West 5.8 mph - N/A   Mostly Cloudy
8:54 AM 66.0 °F 60.1 °F 81% 30.09 in 10.0 mi Calm Calm - N/A   Mostly Cloudy
9:54 AM 66.9 °F 59.0 °F 76% 30.10 in 10.0 mi Calm Calm - N/A   Mostly Cloudy
10:54 AM 71.1 °F 59.0 °F 66% 30.06 in 10.0 mi East 4.6 mph - N/A   Mostly Cloudy
11:54 AM 72.0 °F 59.0 °F 64% 30.07 in 10.0 mi SSE 5.8 mph - N/A   Mostly Cloudy
12:54 PM 70.0 °F 60.1 °F 71% 30.09 in 10.0 mi WSW 5.8 mph - 0.00 in Rain Light Rain
1:54 PM 71.1 °F 61.0 °F 70% 30.12 in 10.0 mi SW 5.8 mph - 0.00 in   Overcast
2:54 PM 73.0 °F 59.0 °F 61% 30.08 in 10.0 mi Variable 3.5 mph - N/A   Overcast
3:54 PM 75.0 °F 60.1 °F 60% 30.07 in 10.0 mi North 6.9 mph - N/A   Mostly Cloudy
4:54 PM 75.0 °F 57.9 °F 55% 30.05 in 10.0 mi Variable 6.9 mph - N/A   Mostly Cloudy
5:54 PM 73.9 °F 57.0 °F 55% 30.05 in 10.0 mi ESE 5.8 mph - N/A   Mostly Cloudy
6:54 PM 73.0 °F 59.0 °F 61% 30.06 in 10.0 mi SE 8.1 mph - N/A   Mostly Cloudy
7:54 PM 72.0 °F 60.1 °F 66% 30.08 in 10.0 mi ESE 6.9 mph - N/A   Overcast
8:54 PM 72.0 °F 60.1 °F 66% 30.09 in 10.0 mi East 6.9 mph - N/A   Overcast
9:54 PM 71.1 °F 60.1 °F 68% 30.10 in 10.0 mi East 6.9 mph - N/A   Mostly Cloudy
10:54 PM 69.1 °F 62.1 °F 78% 30.11 in 10.0 mi ENE 8.1 mph - N/A   Mostly Cloudy
11:54 PM 69.1 °F 62.1 °F 78% 30.12 in 10.0 mi East 10.4 mph - N/A   Overcast